User: anonymous   Login
Location: La Oliva
(42.2466°N, 2.9955°E)
Time: 04:23:11
(UTC+00:00)
Language:

SL-8 R/B - Orbit

View from above orbital plane
View from above orbital plane
View from above satellite
View from above satellite

Ground track
Ground track

The orbit data is extracted from the following two-line orbital elements,

1 33066U 08031G   21169.30895946 -.00000135  00000-0  10216-4 0  9997
2 33066  48.4435 110.1260 0007475 181.2137 178.8757 14.69761399697768
Epoch (UTC): 18 June 2021 07:24:54
Eccentricity: 0.0007475
inclination: 48.4435°
perigee height: 656 km
apogee height: 667 km
right ascension of ascending node: 110.1260°
argument of perigee: 181.2137°
revolutions per day: 14.69761399
mean anomaly at epoch: 178.8757°
orbit number at epoch: 69776

The dashed part of the orbit path shows where the satellite is in the earth's shadow,  

DLR